Terug naar catalogus

XSS 10

ActiefMilitairLEO
NORAD 27664·PAYLOAD·🇺🇸 United States

Gelanceerd Jan 29, 2003 vanaf Cape Canaveral Space Force Station

Loading…

Volgende Passages (komende 24 uur)

TLE

VersSource: Space-Track

Epoch: Sep 14, 2026, 13:56 UTC

1 27664U 03005B   26257.58065489  .00001156  00000-0  10794-3 0  9997
2 27664  39.7467 306.0939 0146441   9.4734 350.8764 14.90640063275976

Volg XSS 10 in realtime met AllMySat

Download on the App Store